Showing default

BRITE-PL 2, 40119

Orbit data source: Space-Track

BRITE-PL 2, 40119 is a payload satellite owned by CBK (PL) in SSO that was launched on Tue, 19 Aug 2014 UTC via a CHANG ZHENG 4B launch vehicle from the Taiyaun Space Center, China (TSC). Payload-class satellites include a variety of spacecraft equipped with specific instruments for various scientific and technological missions. These include communications satellites like Starlink; space stations such as the ISS; scientific satellites like the Hubble; Earth observation satellites from companies like Planet Labs, Umbra, and HawkEye 360; GPS; miniature CubeSats for education and research; and military/defense satellites.

Loading next visibility...
Identifier
40119, 2014-049B
Orbit
SSO
Country
Flag of PLPL / POL
Related business
Manufacturer
CBKPL/UTIAS
Mission
Operational Civil Astronomy
Bus & Motor
GNB, Unknown motor
Mass
6.8 kg wet, 6.8 kg dry
Launch date (UTC)
2014-08-19 (11 years ago)
Launch vehicle
CHANG ZHENG 4B
Launch site
Taiyaun Space Center, China (TSC)
Object type
Payload
Rocket body
Debris
Shape & HBR
Box, 0.1 m
Radar Cross Section
0.060 m², Medium (>0.1 m² and < 1m²)

Expand to show TLE details & history
Last TLE update: 15 hours ago

TLE from 15 hours ago
0 BRITE-PL 2
1 40119U 14049B   25342.24534988  .00004269  00000-0  40895-3 0  9992
2 40119  97.8997  88.0877 0014815  28.4149 331.7876 14.93623121612939
Epoch: 2025-12-08T05:53Z
TLE epoch observation values (Epoch: 2025-12-08T05:53:18.229Z)
Latitude
0.00005°
Longitude
-77.48541°
Altitude
580.599 km
Speed
7.575 km/s
True Right ascension
05h 52m 21s
True Declination
0° 00' 00"
Sunlit
Object was in full shadow at epoch
Visualization orbit readout
Latitude
Unknown
Longitude
Unknown
Altitude
Unknown
Speed
Unknown
Apparent Right ascension
Unknown
Apparent Declination
Unknown
Sunlit
N/A
Visualization observer readout
Local Sidereal Time
18:37:45
Azimuth
Unknown
Elevation
Unknown
Doppler factor
Unknown
Orbital elements
Apogee altitude
593.986 km
Perigee altitude
573.358 km
Semi-major axis
6,961.809 km
Eccentricity
0.00148
Inclination
97.8997°
RAAN
88.0877°
Arg. of periapsis
28.4149°
True anomaly
331.70721°
Mean anomaly
331.7876°
Eccentric anomaly
331.74742°
Mean motion
3.73646 °/min
Orbital period
96.35 mins
BSTAR
0.00040895
Loading maneuver chart data...
Computing Atmospheric mass density...
Loading historical data...
Loading historical data...
Loading historical data...
Loading historical data...
Loading historical data...
Loading historical data...
Loading historical data...
Other satellites on launch #49 in the year 2014 (2014-08-19 UTC)

Documentation

Showing up to 5 results
|